Regional Weather Roundup
Issued by NWS Sioux Falls, SD

Home | Current Version | Previous Version | Text Only | Print | Product List | Glossary On
Versions: 1 2 3 4 5 6 7 8 9 10 11 12 13 14 15 16 17 18 19 20 21 22 23 24 25 26 27 28 29 30 31 32 33 34 35 36 37 38 39 40 41 42 43 44 45 46 47 48 49 50
000
ASUS43 KFSD 171410
RWRFSD

WEATHER ROUNDUP FOR SE SOUTH DAKOTA/SW MINNESOTA/NW IOWA
NATIONAL WEATHER SERVICE SIOUX FALLS SD
900 AM CDT THU APR 17 2014

NOTE: "FAIR" INDICATES FEW OR NO CLOUDS BELOW 12,000 FEET WITH NO
SIGNIFICANT WEATHER AND OR OBSTRUCTIONS TO VISIBILITY.


SDZ038>040-050-052>070-171500-
SOUTHEAST SOUTH DAKOTA

CITY           SKY/WX    TMP DP  RH WIND       PRES   REMARKS
CHAMBERLAIN      N/A     29  24  82 CALM      30.31S
HURON          SUNNY     26  20  77 N7        30.33F WCI  18
MITCHELL       SUNNY     30  22  72 N6        30.34S WCI  24
SIOUX FALLS    SUNNY     27  21  78 N12       30.31R WCI  17
WINNER         FAIR      30  24  78 CALM      30.30R
YANKTON        SUNNY     28  23  80 N10       30.34R WCI  19
$$

MNZ071-072-080-081-089-090-097-098-171500-
SOUTHWEST MINNESOTA

CITY           SKY/WX    TMP DP  RH WIND       PRES   REMARKS
FAIRMONT       CLOUDY    27  21  80 N13       30.27R WCI  16
JACKSON        MOSUNNY   27  21  80 N13G23    30.25R WCI  16
LUVERNE        SUNNY     28  23  80 N8        30.31R WCI  20
MARSHALL       MOSUNNY   23  16  74 NW13      30.29R WCI  11
MONTEVIDEO     SUNNY     28  25  86 N9        30.31R WCI  20
PIPESTONE        N/A     23  19  86 N6        30.27R WCI  16
REDWOOD FALLS  SUNNY     25  19  78 NW13      30.27R WCI  14
TRACY          SUNNY     25  20  82 NW10      30.28R WCI  15
WINDOM         SUNNY     25  21  86 NW15      30.25R WCI  12
WORTHINGTON    SUNNY     25  18  74 N15       30.27R WCI  12
$$

IAZ001>003-012>014-020>022-031-032-NEZ013-014-SDZ071-171500-
NORTHWEST IOWA

CITY           SKY/WX    TMP DP  RH WIND       PRES   REMARKS
CHEROKEE       SUNNY     30  24  79 NW13      30.30R WCI  20
DENISON        CLOUDY    32  27  80 NW14      30.28R WCI  22
ESTHERVILLE    CLOUDY    26  24  92 NW12      30.26R WCI  16
LE MARS        MOSUNNY   30  25  80 N9        30.32R WCI  22
ORANGE CITY    SUNNY     28  21  74 N10       30.30R WCI  19
SHELDON        MOSUNNY   27  23  86 NW12      30.29R WCI  16
SIOUX CITY     CLOUDY    32  24  72 NW13      30.32R WCI  22
SPENCER        MOSUNNY   28  22  78 NW13      30.28R WCI  17
STORM LAKE     PTSUNNY   28  25  86 NW13      30.28R WCI  18
$$

ABBREVIATIONS USED IN REMARKS
   TC - TEMPERATURE IN CELSIUS
  WCI - WIND CHILL INDEX
   HX - HEAT INDEX
  VSB - VISIBILITY




USA.gov is the U.S. government's official web portal to all federal, state and local government web resources and services.